Temp
-10 -11 -11 -11 -11 -11 -11 -11 -11 -12 -12 -12 -12 -12 -12 -11 -11 -11 -11 -11 -12 -11 -11 -11 -11 -11 -11 -10 -10 -10 -9 -9 -9 -10 -10 -10 -10 -10 -9 -9 -9 -9 -9
-11 -11 -11 -11 -11 -12 -12 -12 -12 -12 -12 -12 -12 -12 -12 -12 -12 -12 -11 -11 -12 -12 -12 -11 -11 -11 -11 -11 -11 -11 -10 -10 -10 -10 -10 -10 -10 -10 -10 -10 -9 -10 -10
-12 -12 -12 -12 -12 -12 -12 -12 -12 -12 -12 -12 -12 -13 -13 -13 -13 -13 -13 -12 -12 -12 -12 -12 -12 -12 -12 -12 -12 -11 -11 -11 -11 -10 -10 -10 -10 -10 -10 -10 -10 -10 -10
-12 -12 -12 -12 -12 -13 -13 -12 -12 -12 -12 -13 -13 -14 -14 -14 -14 -14 -14 -13 -13 -13 -12 -12 -13 -12 -13 -12 -12 -12 -12 -11 -11 -11 -11 -10 -10 -10 -10 -10 -10 -10 -10
-12 -12 -12 -13 -13 -13 -13 -13 -12 -12 -12 -13 -13 -14 -14 -14 -14 -14 -14 -14 -14 -14 -13 -13 -13 -13 -13 -13 -12 -12 -12 -12 -12 -11 -11 -11 -11 -11 -11 -10 -11 -10 -10
-13 -13 -13 -13 -13 -13 -13 -13 -13 -13 -13 -13 -13 -13 -14 -14 -14 -14 -14 -14 -14 -14 -14 -14 -13 -13 -13 -13 -13 -12 -12 -12 -12 -12 -12 -11 -11 -11 -11 -11 -11 -11 -10
-13 -13 -13 -13 -13 -13 -14 -14 -14 -14 -14 -14 -14 -14 -14 -14 -14 -15 -14 -15 -15 -15 -15 -15 -14 -13 -13 -13 -13 -13 -12 -12 -12 -11 -12 -11 -11 -11 -11 -11 -11 -11 -11
-13 -13 -13 -14 -14 -14 -14 -14 -14 -14 -15 -14 -14 -14 -14 -14 -15 -14 -16 -17 -17 -17 -16 -16 -15 -14 -13 -13 -12 -13 -12 -12 -11 -12 -12 -12 -12 -12 -11 -11 -11 -11 -11
-14 -14 -14 -14 -14 -14 -15 -15 -15 -15 -15 -15 -15 -15 -14 -15 -14 -17 -18 -18 -19 -19 -18 -17 -16 -15 -14 -14 -12 -13 -13 -12 -12 -12 -12 -12 -12 -13 -12 -12 -11 -11 -11
-14 -14 -13 -13 -13 -14 -14 -14 -15 -15 -15 -15 -15 -15 -15 -15 -16 -18 -18 -18 -18 -19 -18 -17 -16 -16 -15 -14 -13 -13 -13 -13 -13 -13 -13 -13 -13 -13 -12 -12 -12 -12 -11
-13 -13 -13 -13 -13 -14 -14 -14 -14 -15 -15 -15 -15 -15 -16 -15 -18 -18 -18 -18 -18 -18 -17 -17 -16 -16 -16 -13 -14 -13 -13 -14 -13 -13 -13 -13 -14 -13 -13 -13 -12 -12 -12
-13 -13 -13 -13 -13 -14 -14 -14 -14 -15 -15 -15 -15 -15 -16 -16 -17 -17 -18 -19 -18 -18 -18 -16 -17 -16 -16 -14 -14 -15 -15 -14 -14 -14 -14 -14 -13 -13 -13 -13 -13 -13 -12
-13 -13 -13 -13 -14 -14 -14 -14 -15 -15 -15 -15 -15 -16 -16 -16 -16 -17 -18 -18 -18 -18 -18 -17 -18 -17 -16 -16 -15 -15 -16 -15 -14 -14 -14 -13 -14 -13 -14 -14 -13 -13 -12
-13 -13 -13 -14 -14 -14 -15 -15 -15 -15 -15 -15 -16 -16 -16 -17 -17 -17 -17 -18 -18 -18 -18 -18 -17 -17 -17 -17 -17 -15 -16 -15 -16 -15 -14 -13 -13 -13 -14 -14 -14 -14 -13
-13 -13 -14 -14 -15 -15 -15 -15 -16 -16 -16 -16 -16 -16 -16 -16 -17 -17 -17 -18 -18 -18 -18 -18 -18 -18 -17 -17 -16 -16 -16 -15 -15 -15 -14 -14 -14 -14 -14 -14 -14 -14 -14
-13 -14 -14 -14 -15 -15 -15 -16 -16 -16 -16 -16 -16 -16 -16 -16 -17 -17 -17 -18 -18 -18 -18 -18 -18 -18 -17 -17 -17 -17 -17 -16 -15 -15 -14 -14 -14 -15 -14 -14 -14 -14 -14
-14 -14 -14 -15 -15 -15 -16 -16 -16 -16 -16 -16 -16 -16 -16 -16 -17 -17 -17 -17 -18 -18 -18 -18 -18 -18 -18 -17 -17 -18 -18 -17 -16 -16 -15 -15 -15 -15 -14 -15 -14 -14 -14
-14 -14 -15 -15 -15 -15 -16 -16 -16 -17 -17 -17 -17 -17 -17 -17 -17 -17 -17 -17 -17 -18 -18 -18 -17 -18 -18 -18 -17 -18 -17 -16 -16 -16 -17 -16 -15 -15 -15 -15 -15 -15 -15
-14 -14 -15 -15 -15 -16 -16 -16 -17 -17 -17 -17 -17 -17 -17 -17 -17 -17 -17 -17 -17 -17 -17 -18 -18 -18 -17 -17 -17 -17 -18 -16 -17 -17 -17 -17 -17 -16 -16 -16 -15 -15 -15
-14 -15 -15 -15 -16 -16 -17 -17 -17 -17 -17 -17 -18 -18 -18 -18 -18 -18 -17 -17 -17 -18 -18 -18 -17 -18 -18 -18 -18 -18 -18 -18 -17 -17 -17 -17 -17 -16 -16 -16 -16 -16 -16
-15 -15 -16 -16 -16 -17 -17 -18 -18 -18 -18 -17 -18 -18 -18 -18 -18 -18 -18 -18 -17 -17 -17 -18 -18 -17 -18 -19 -20 -19 -19 -19 -18 -18 -18 -17 -17 -17 -17 -17 -16 -16 -16
-15 -16 -16 -17 -17 -17 -17 -18 -18 -18 -18 -18 -18 -18 -19 -19 -18 -18 -19 -19 -18 -18 -18 -18 -18 -19 -19 -20 -21 -20 -20 -20 -21 -20 -19 -19 -18 -18 -17 -17 -17 -17 -17
-16 -16 -17 -18 -17 -18 -18 -18 -19 -18 -19 -19 -19 -19 -19 -19 -19 -19 -19 -19 -18 -18 -18 -19 -19 -20 -21 -21 -22 -21 -21 -21 -21 -22 -22 -22 -21 -20 -19 -19 -18 -18 -18
-16 -16 -17 -18 -18 -19 -19 -18 -19 -19 -19 -19 -19 -19 -19 -19 -19 -20 -20 -19 -19 -19 -19 -20 -21 -21 -22 -22 -22 -22 -22 -22 -22 -23 -22 -22 -22 -22 -21 -20 -20 -20 -19
-17 -17 -18 -19 -19 -19 -20 -19 -20 -20 -19 -20 -19 -20 -20 -20 -20 -20 -20 -20 -20 -20 -21 -22 -22 -23 -23 -24 -23 -23 -24 -23 -23 -23 -23 -22 -23 -23 -22 -22 -20 -20 -20
-18 -17 -18 -19 -19 -21 -20 -20 -20 -20 -20 -20 -20 -20 -20 -20 -20 -20 -20 -20 -21 -22 -22 -23 -24 -24 -24 -25 -25 -25 -24 -24 -24 -24 -24 -23 -23 -23 -23 -23 -22 -21 -20
Height
5803 5800 5797 5794 5792 5789 5787 5785 5783 5782 5779 5777 5776 5775 5775 5773 5772 5772 5773 5775 5776 5776 5777 5779 5781 5783 5784 5786 5788 5789 5791 5792 5793 5795 5796 5798 5799 5799 5801 5802 5803 5805 5806
5794 5791 5787 5784 5781 5779 5776 5775 5772 5770 5767 5763 5761 5759 5759 5758 5757 5757 5757 5759 5762 5762 5765 5767 5768 5771 5773 5775 5777 5778 5780 5782 5784 5786 5787 5788 5789 5791 5793 5794 5795 5796 5798
5784 5780 5777 5774 5771 5768 5765 5763 5761 5758 5755 5751 5748 5744 5741 5740 5740 5740 5740 5741 5744 5748 5750 5753 5756 5757 5760 5762 5764 5767 5768 5770 5773 5775 5777 5779 5780 5782 5784 5785 5786 5787 5788
5774 5771 5768 5765 5761 5758 5755 5752 5749 5746 5743 5739 5736 5733 5731 5728 5725 5724 5724 5724 5726 5730 5735 5738 5742 5745 5747 5749 5752 5755 5757 5759 5762 5764 5766 5769 5771 5773 5774 5776 5778 5779 5779
5766 5763 5760 5756 5752 5749 5745 5742 5738 5734 5731 5727 5724 5720 5718 5715 5712 5710 5708 5708 5708 5711 5716 5722 5726 5731 5734 5736 5740 5743 5745 5749 5751 5753 5756 5758 5760 5762 5764 5766 5768 5770 5771
5758 5755 5751 5748 5743 5739 5735 5731 5728 5723 5718 5714 5710 5706 5701 5698 5694 5692 5690 5689 5690 5691 5696 5702 5709 5716 5721 5724 5726 5729 5733 5736 5740 5742 5744 5746 5749 5751 5753 5756 5758 5760 5762
5751 5747 5743 5739 5735 5730 5726 5721 5717 5712 5706 5700 5698 5693 5688 5682 5678 5673 5667 5665 5665 5669 5673 5682 5690 5699 5706 5710 5712 5716 5720 5724 5726 5728 5731 5732 5736 5739 5742 5746 5749 5751 5753
5743 5739 5734 5730 5726 5721 5716 5711 5706 5701 5696 5688 5683 5679 5675 5669 5657 5647 5637 5631 5635 5642 5652 5663 5674 5682 5690 5696 5698 5702 5704 5710 5710 5714 5717 5720 5722 5725 5729 5733 5736 5739 5742
5735 5731 5726 5721 5716 5711 5706 5700 5694 5689 5685 5678 5671 5663 5658 5649 5636 5620 5613 5611 5612 5620 5631 5646 5658 5666 5674 5684 5683 5687 5688 5693 5697 5700 5704 5708 5710 5713 5716 5719 5723 5727 5731
5726 5721 5717 5712 5707 5702 5697 5691 5685 5679 5674 5669 5662 5651 5641 5629 5613 5610 5607 5606 5607 5614 5622 5633 5643 5653 5660 5668 5672 5666 5672 5679 5683 5688 5692 5695 5698 5700 5704 5706 5709 5713 5718
5718 5714 5709 5704 5700 5695 5689 5683 5677 5672 5667 5661 5654 5645 5632 5618 5607 5605 5601 5599 5607 5605 5610 5624 5633 5643 5648 5656 5655 5652 5657 5665 5670 5673 5679 5681 5684 5688 5692 5695 5697 5701 5704
5712 5707 5702 5697 5692 5686 5681 5676 5670 5664 5658 5652 5645 5636 5627 5615 5605 5602 5602 5600 5599 5600 5603 5610 5606 5616 5632 5634 5638 5640 5644 5649 5654 5659 5663 5666 5674 5677 5681 5683 5685 5690 5692
5703 5699 5694 5688 5683 5678 5672 5667 5661 5655 5650 5644 5637 5629 5621 5613 5604 5600 5598 5598 5597 5596 5598 5602 5604 5610 5614 5618 5620 5627 5632 5637 5641 5645 5651 5656 5658 5662 5667 5671 5673 5678 5681
5695 5690 5685 5680 5675 5670 5664 5657 5652 5646 5641 5636 5631 5624 5616 5609 5603 5597 5594 5591 5591 5592 5593 5597 5598 5602 5605 5607 5612 5619 5618 5624 5629 5633 5636 5640 5642 5646 5651 5655 5660 5664 5666
5688 5683 5678 5672 5666 5661 5655 5649 5644 5638 5632 5627 5623 5618 5612 5605 5599 5594 5590 5587 5587 5586 5586 5588 5590 5593 5597 5600 5602 5605 5605 5610 5615 5620 5624 5621 5627 5633 5635 5640 5644 5649 5653
5680 5675 5669 5664 5658 5653 5647 5641 5635 5630 5623 5618 5613 5609 5605 5600 5595 5590 5585 5582 5580 5580 5579 5581 5582 5583 5585 5588 5589 5588 5591 5595 5600 5602 5605 5605 5609 5614 5617 5623 5629 5635 5639
5672 5666 5661 5655 5649 5644 5638 5633 5626 5621 5616 5610 5605 5600 5596 5592 5588 5584 5580 5576 5573 5572 5571 5571 5571 5573 5574 5574 5576 5577 5579 5582 5581 5586 5587 5590 5593 5595 5601 5607 5613 5619 5623
5662 5657 5651 5646 5640 5634 5628 5623 5617 5612 5607 5602 5597 5592 5587 5583 5579 5576 5573 5570 5566 5564 5563 5562 5562 5560 5560 5560 5560 5562 5566 5567 5564 5568 5571 5576 5577 5580 5585 5589 5595 5600 5606
5652 5646 5640 5633 5627 5622 5617 5612 5606 5601 5597 5592 5588 5584 5580 5575 5570 5567 5564 5561 5558 5555 5553 5551 5550 5549 5547 5546 5544 5545 5547 5548 5547 5548 5552 5556 5560 5561 5565 5570 5577 5583 5587
5643 5637 5631 5625 5618 5612 5605 5599 5595 5590 5585 5581 5577 5574 5570 5566 5562 5557 5554 5550 5548 5545 5542 5540 5538 5536 5534 5532 5531 5528 5528 5530 5532 5534 5535 5537 5539 5544 5545 5550 5556 5563 5567
5630 5624 5619 5613 5608 5602 5595 5589 5582 5578 5573 5569 5566 5562 5559 5555 5552 5547 5542 5538 5536 5533 5530 5527 5524 5521 5518 5516 5515 5513 5511 5510 5511 5514 5516 5518 5523 5526 5528 5530 5535 5543 5548
5618 5612 5606 5600 5594 5589 5582 5576 5569 5565 5561 5557 5553 5549 5547 5543 5540 5536 5532 5527 5523 5520 5517 5513 5509 5505 5501 5497 5495 5494 5492 5491 5492 5493 5495 5496 5502 5504 5508 5512 5516 5520 5526
5604 5598 5592 5586 5580 5574 5570 5563 5557 5552 5548 5545 5541 5537 5533 5531 5527 5523 5519 5514 5510 5507 5503 5498 5494 5488 5484 5480 5480 5478 5475 5474 5473 5471 5472 5475 5477 5482 5487 5491 5496 5500 5506
5588 5583 5577 5571 5565 5560 5555 5550 5544 5540 5536 5532 5527 5524 5520 5517 5514 5511 5506 5501 5496 5491 5487 5482 5477 5473 5469 5464 5460 5459 5457 5455 5455 5453 5454 5458 5457 5461 5464 5468 5474 5479 5484
5573 5566 5561 5555 5550 5545 5541 5535 5531 5527 5523 5519 5515 5511 5508 5504 5501 5498 5494 5488 5482 5476 5471 5466 5462 5457 5452 5448 5444 5442 5439 5437 5435 5434 5433 5436 5437 5441 5445 5446 5451 5457 5461
5557 5551 5544 5540 5535 5530 5527 5521 5517 5513 5509 5505 5502 5499 5496 5492 5488 5484 5481 5475 5469 5463 5457 5452 5448 5443 5438 5433 5428 5425 5422 5420 5417 5416 5412 5414 5415 5416 5423 5425 5428 5431 5436
Wind_Speed
43 44 45 47 48 48 48 47 45 47 50 53 54 56 57 60 61 60 60 58 55 55 54 57 56 52 50 48 46 44 43 42 40 40 39 39 39 38 38 37 36 35 33
44 46 46 44 43 42 43 45 48 46 50 54 57 59 59 61 63 64 65 64 62 59 57 55 57 57 54 52 50 48 46 45 43 42 42 41 41 40 40 38 38 38 38
45 42 41 43 45 45 44 43 46 51 47 47 50 50 51 52 57 63 65 67 66 64 62 57 55 56 56 54 50 50 49 48 46 45 44 44 43 41 39 40 39 38 38
39 39 42 43 43 44 46 48 47 44 46 47 48 46 47 49 50 52 63 66 69 68 66 63 58 54 54 54 54 52 51 50 48 47 46 45 43 43 41 41 40 39 37
36 38 39 39 40 41 42 43 44 46 48 48 53 56 57 59 58 60 60 60 68 71 69 67 63 57 53 52 53 54 54 51 49 48 47 45 45 45 44 44 42 42 39
36 37 39 40 40 41 44 44 45 45 46 47 48 53 57 59 59 62 63 70 71 73 73 70 66 62 58 54 54 55 54 53 52 50 52 49 45 44 44 43 42 42 43
35 36 38 40 42 44 46 46 46 46 47 48 47 48 53 57 62 70 73 76 78 76 76 72 66 63 61 61 59 58 55 55 55 56 60 43 43 50 47 48 48 43 42
36 37 38 40 42 44 46 48 47 45 45 48 49 49 50 52 60 70 75 74 73 74 74 72 68 63 63 59 63 60 60 64 55 57 59 57 47 49 50 51 52 49 46
35 38 39 41 42 43 45 46 46 44 42 45 48 53 52 53 61 53 44 44 55 62 63 65 66 64 61 60 50 70 59 59 51 46 48 50 51 48 48 49 52 54 53
38 39 39 38 39 39 40 40 40 40 40 41 45 50 52 55 46 27 24 22 32 47 53 58 62 60 61 52 60 47 66 63 56 54 53 54 56 53 54 58 41 48 58
37 38 38 39 40 40 39 39 37 34 35 35 37 41 44 46 31 21 15 24 29 33 50 46 55 60 64 49 48 42 52 60 50 48 56 57 56 55 53 57 59 45 48
38 39 40 41 41 42 43 42 41 39 38 37 37 39 37 37 27 23 28 19 28 39 43 62 61 46 59 43 41 69 59 56 51 55 53 54 56 60 58 56 54 43 46
37 38 39 39 39 39 39 39 41 41 41 39 37 36 35 32 25 23 19 26 24 31 39 47 60 61 59 59 50 48 58 63 62 62 57 54 55 57 57 53 53 43 44
40 40 39 38 39 40 40 39 40 40 40 38 37 33 32 28 26 23 24 23 22 24 30 44 52 57 63 65 60 45 59 61 60 47 56 58 60 54 52 52 53 53 60
39 39 39 39 39 39 40 41 41 40 39 38 37 36 31 27 25 23 23 24 27 29 28 34 43 49 55 54 57 64 52 60 58 53 57 48 58 60 54 58 55 54 56
39 39 40 40 42 42 42 42 42 40 39 37 36 34 33 30 27 23 22 24 25 27 32 36 39 44 51 57 62 67 55 50 57 51 63 73 73 62 62 61 52 52 54
41 42 43 43 43 44 44 44 42 40 39 38 37 34 32 31 30 26 23 24 26 29 30 30 38 45 50 52 65 57 62 59 49 61 63 64 58 52 62 63 60 60 56
41 43 44 45 46 46 46 45 44 42 40 39 37 35 34 30 29 29 29 26 25 27 29 32 37 39 46 58 64 62 63 68 64 60 57 69 71 71 69 79 71 68 68
44 45 46 46 46 47 48 47 45 43 41 40 39 37 36 33 30 29 29 31 34 34 33 32 35 39 43 48 57 61 64 70 77 73 73 69 68 66 71 68 68 70 69
49 49 50 50 49 51 50 46 48 45 41 40 39 39 38 37 35 32 31 30 33 35 37 37 38 41 45 49 50 57 60 60 66 68 74 77 76 76 73 75 75 73 69
51 51 51 51 53 54 51 49 49 46 43 40 39 39 39 39 38 36 34 33 34 35 37 40 43 45 49 51 53 54 55 63 63 66 66 70 76 74 76 77 78 79 73
54 54 53 53 52 55 53 53 54 48 46 41 39 39 39 40 40 39 38 37 37 37 38 41 46 49 51 54 55 56 57 54 61 70 68 67 67 64 68 70 70 70 73
56 56 55 55 57 57 54 54 56 51 45 43 39 40 40 41 41 41 41 40 40 42 42 43 46 49 52 54 52 54 57 58 58 60 68 67 68 66 67 66 66 65 65
58 57 57 55 58 58 54 54 56 51 46 44 40 40 40 41 41 43 43 43 43 44 44 45 46 47 48 49 50 49 53 56 58 60 57 65 68 69 69 68 66 65 65
60 59 57 54 57 57 54 50 52 49 48 47 42 39 40 40 41 43 45 46 45 45 45 44 45 45 45 45 46 48 48 51 54 59 61 60 59 67 69 71 73 69 67
61 62 58 58 55 54 50 48 49 48 47 45 44 39 39 39 39 42 45 46 45 44 44 44 44 45 46 47 48 48 49 49 51 53 57 60 62 60 63 68 71 73 74
Wind_Direction
287 287 287 288 288 288 287 285 283 284 285 284 282 280 278 277 275 272 269 263 260 260 260 257 255 251 250 250 252 252 254 256 255 256 256 256 256 256 257 260 260 261 261
289 291 291 288 287 287 285 283 284 286 288 285 282 280 277 274 271 271 269 267 262 258 258 257 256 253 251 249 248 250 250 250 253 254 255 254 255 257 259 260 261 262 262
294 291 290 289 288 288 287 286 287 287 289 291 289 286 282 278 271 269 265 263 262 259 255 254 255 254 251 248 247 248 248 249 250 251 254 255 256 257 259 262 261 259 259
289 290 292 292 289 288 285 285 287 286 289 293 286 281 279 281 282 279 266 264 260 257 256 253 251 250 250 248 246 246 249 250 251 252 252 254 256 257 258 259 260 259 257
292 293 296 297 296 293 290 289 292 291 289 288 287 285 282 280 278 276 272 271 262 257 252 251 249 247 245 246 247 247 248 250 250 251 252 253 255 255 258 257 256 256 256
296 297 295 295 297 297 295 295 291 289 287 286 288 287 284 278 273 273 271 268 265 259 251 247 245 246 244 244 245 246 248 248 251 252 253 251 251 254 257 258 257 256 257
299 300 300 301 301 299 298 296 294 292 290 290 292 292 283 277 271 277 273 266 259 257 250 244 240 241 243 244 245 245 249 251 247 245 246 247 249 252 255 256 259 257 256
303 302 302 302 301 302 301 300 296 292 290 290 293 297 295 290 287 283 280 272 260 252 246 240 238 237 241 240 249 246 244 246 237 247 245 247 253 253 254 249 252 252 253
301 300 300 301 303 303 303 302 300 297 296 297 298 299 304 302 297 290 280 275 255 241 236 236 235 235 239 244 253 244 248 242 242 246 248 248 250 256 261 254 247 246 248
300 300 302 303 303 304 307 308 307 305 303 300 302 305 309 315 309 284 288 277 265 240 235 234 232 234 241 246 245 241 247 254 255 251 252 254 257 260 257 262 245 254 243
303 303 302 300 301 304 308 311 312 313 313 315 318 319 320 328 306 286 329 238 233 241 231 226 230 231 235 233 242 243 243 242 246 248 250 251 256 261 263 266 269 268 251
304 305 303 303 303 304 305 307 310 312 316 321 320 326 330 337 320 311 285 296 263 246 238 221 236 237 222 242 253 249 258 253 252 252 254 253 255 259 262 264 267 266 261
306 306 306 304 305 306 308 309 309 310 312 315 323 324 330 337 333 308 286 277 289 263 248 242 244 247 235 243 248 242 245 253 257 256 255 256 259 259 258 257 259 261 233
306 307 307 310 311 310 310 309 309 311 314 314 319 325 324 331 335 327 301 276 272 273 257 244 245 243 246 254 257 259 251 249 251 254 261 259 258 256 251 253 248 247 248
308 309 310 311 312 312 311 311 310 310 313 314 315 322 325 322 324 323 319 308 288 273 259 250 251 250 245 248 249 244 243 241 243 247 245 225 236 245 253 249 248 249 247
308 309 311 312 312 312 312 311 310 310 310 310 311 314 320 322 317 317 312 304 298 291 278 267 255 251 253 249 248 245 252 249 245 242 245 244 247 237 232 244 248 252 251
309 308 309 309 309 309 311 311 309 309 307 307 307 308 311 314 315 311 311 305 300 289 283 279 268 262 255 251 250 257 259 255 237 244 245 235 231 237 237 248 252 247 243
308 307 306 306 306 306 307 309 310 308 306 305 304 303 304 305 306 308 304 302 301 297 291 284 276 274 264 259 256 253 247 255 247 240 247 243 241 249 254 252 251 252 249
305 305 303 301 300 300 301 303 306 307 305 303 303 301 299 300 299 300 301 300 298 296 291 291 287 280 274 269 258 258 255 251 257 259 258 264 254 249 248 245 256 252 249
304 304 303 302 299 302 297 297 300 301 302 302 301 300 298 297 296 294 295 295 296 297 289 283 286 288 281 272 269 265 261 257 255 256 257 260 261 253 244 246 252 252 249
301 301 301 300 300 303 298 294 295 297 296 297 298 297 297 296 295 293 293 292 294 298 296 290 287 289 285 278 272 269 268 263 259 258 256 252 251 249 250 249 248 249 249
301 299 298 298 299 297 301 293 291 292 294 292 293 294 295 295 294 293 293 293 292 293 293 291 289 286 283 280 275 271 271 271 265 260 257 257 253 253 252 248 247 245 247
299 298 297 296 298 295 301 296 288 291 291 288 290 292 293 294 293 293 294 293 293 294 293 292 288 286 284 280 277 273 271 269 267 263 259 259 258 258 255 251 249 249 248
298 297 295 294 295 299 301 304 295 296 291 285 285 288 291 293 293 294 296 295 296 295 295 294 289 285 282 280 279 274 270 268 266 264 263 257 256 255 254 254 253 249 248
295 293 291 293 289 296 301 303 297 298 294 287 283 287 290 293 295 296 298 299 298 297 297 294 290 288 287 284 281 278 275 271 267 266 264 261 259 253 253 253 252 251 249
294 292 290 290 292 296 304 302 299 298 294 288 285 287 290 293 296 297 299 300 299 299 297 293 292 290 290 289 288 285 281 277 272 267 265 263 261 260 253 252 253 252 251